Weather in Krivonosovo

Russia / Ivanovo Oblast     56°40′40″N   41°15′12″E
temp.,
°C
wind,
m/s
gust,
m/s
humid.,
%
clouds,
%
prec.,
mm/h
press.,
hPa
HPBL,
m
13 june, sun
sun1300:00+14se259823 0.0 1007102
03:00+13sse2498100 0.0 100767
06:00+15sse239543 0.0 1007140
09:00+21sse23705 0.0 1007710
12:00+21s347371 1.3 1007782
15:00+22ssw247797 3.2 1007984
18:00+21ssw238510 2.2 1007123
21:00+16wsw229169 2.9 100816
14 june, mon
mon1400:00+15wsw229494 0.0 101016
03:00+14wsw229696 0.0 101131
06:00+16sw13928 0.0 1012104
09:00+22sw236414 0.0 1013606
12:00+24wsw23530 1.1 10141342
15:00+26sw234224 1.1 10132166
18:00+23w246194 0.0 1014241
21:00+18n117915 0.0 101411
15 june, tue
tue1500:00+16ne11830 0.0 101511
03:00+15ene11860 0.0 101411
06:00+18ne11770 0.0 101468
09:00+24ese11600 0.0 1014644
12:00+27ssw114621 0.0 10121863
15:00+25s225317 0.0 10111142
18:00+23s366857 0.1 1010315
21:00+19ssw228381 0.2 101011
16 june, wed
wed1600:00+17s119010 0.1 100911
03:00+16s2294100 0.5 100923
06:00+18ssw1395100 1.9 1009127
09:00+20nw2484100 2.0 1009426
12:00+21nw568798 1.6 1010819
15:00+23n68563 2.7 10111367
18:00+20nnw47600 0.0 10131041
21:00+15nw310670 0.0 1015246
17 june, thu
thu1700:00+12nnw26755 0.0 1017100
03:00+10nnw28770 0.0 1019166
06:00+13nnw311643 0.0 1021361
09:00+18nnw46475 0.0 1022958
12:00+20n46420 0.0 10231519
15:00+22n46400 0.0 10241688
18:00+21nw36520 0.0 10241270
21:00+15nw227535 0.0 102514